Location: Dillon
(41.1766°N, 107.0923°W)
Time: 10:07:34
(UTC+00:00)

PSLV DEB - Visible Passes

Search period start: 26 November 2022 00:00
Search period end: 06 December 2022 00:00
Orbit: 622 x 644 km, 98.3° (Epoch: 25 November)

Date Brightness Start Highest point End Pass type
(mag) Time Alt. Az. Time Alt. Az. Time Alt. Az.
26 Nov ? 01:25:51 10° SW 01:29:06 20° W 01:32:22 10° NW visible
26 Nov ? 13:13:30 10° NNE 13:17:59 71° ESE 13:22:25 10° S visible
27 Nov ? 00:09:38 10° SSE 00:13:55 60° ENE 00:18:17 10° N visible
27 Nov ? 01:48:57 10° WSW 01:50:39 12° W 01:52:21 10° WNW visible
27 Nov ? 12:01:15 10° ENE 12:02:33 11° E 12:03:50 10° ESE visible
27 Nov ? 13:34:52 10° N 13:39:19 68° WNW 13:43:44 10° SSW visible
28 Nov ? 00:30:54 10° S 00:35:15 79° WSW 00:39:40 10° NNW visible
28 Nov ? 12:20:56 10° NE 12:24:07 19° E 12:27:16 10° SE visible
29 Nov ? 00:52:27 10° S 00:56:38 45° W 01:00:53 10° NNW visible
29 Nov ? 12:41:38 10° NE 12:45:37 31° E 12:49:34 10° SSE visible
30 Nov ? 01:14:23 10° SSW 01:18:05 27° W 01:21:50 10° NW visible
30 Nov ? 13:02:40 10° NNE 13:07:03 53° E 13:11:23 10° S visible
01 Dec ? 01:36:51 10° SW 01:39:36 16° W 01:42:22 10° NW visible
01 Dec ? 13:23:55 10° NNE 13:28:25 90° SSW 13:32:52 10° SSW visible
02 Dec ? 00:19:58 10° SSE 00:24:19 78° ENE 00:28:45 10° N visible
02 Dec ? 12:10:40 10° ENE 12:13:04 14° E 12:15:28 10° SE visible
03 Dec ? 00:41:20 10° S 00:45:40 62° WSW 00:50:04 10° NNW visible
03 Dec ? 12:31:00 10° NE 12:34:36 24° E 12:38:11 10° SSE visible
04 Dec ? 01:03:03 10° SSW 01:07:04 36° W 01:11:09 10° NNW visible
04 Dec ? 12:51:52 10° NNE 12:56:04 39° E 13:00:14 10° SSE visible
05 Dec ? 01:25:11 10° SW 01:28:33 21° W 01:31:57 10° NW visible
05 Dec ? 13:13:00 10° NNE 13:17:28 68° ESE 13:21:53 10° S visible
